Springfield, OH

12:15 PM EDT on June 25, 2017 (GMT -0400)
Springfield-Beckley Municipal

Weather History for KSGH - August, 2014

Change the Weather History Date:

Thursday, August 28, 2014

  Actual Average (KFFO) Record (KFFO)
Temperature  
Mean Temperature 71 °F -  
Max Temperature 81 °F 80 °F 91 °F (2013)
Min Temperature 61 °F 59 °F 51 °F (2010)
Cooling Degree Days 6    
Growing Degree Days 21 (Base 50)    
Moisture  
Dew Point 63 °F    
Average Humidity 79    
Maximum Humidity 100    
Minimum Humidity 52    
Precipitation  
Precipitation 0.00 in - - ()
Sea Level Pressure  
Sea Level Pressure 30.10 in    
Wind  
Wind Speed 6 mph (ENE)    
Max Wind Speed 9 mph    
Max Gust Speed -    
Visibility 9 miles    
Events      
Averages and records for this station are not official NWS values.
T = Trace of Precipitation, MM = Missing Value Source: NWS Daily Summary

Daily Weather History Graph

Daily Weather History Graph

Search for Another Location

Airport or City:

Trip Planner

Search our weather history database for the weather conditions in past years. The results will help you decide how hot, cold, wet, or windy it might be!

Date:

Astronomy

Aug. 28, 2014 Rise Set
Actual Time 6:59 AM EDT 8:12 PM EDT
Civil Twilight 6:31 AM EDT 8:40 PM EDT
Nautical Twilight 5:58 AM EDT 9:14 PM EDT
Astronomical Twilight 5:23 AM EDT 9:48 PM EDT
Moon 9:50 AM EDT (8/28) 9:36 PM EDT (8/28)
Length of Visible Light 14h 09m
Length of Day
13h 13m
Waxing Crescent, 8% of the Moon is Illuminated
Aug 28
Waxing Crescent
Sep 2
First Quarter
Sep 8
Full
Sep 15
Last Quarter
Sep 24
New

Hourly Weather History & Observations

Time (EDT) Temp. Heat Index Dew Point Humidity Pressure Visibility Wind Dir Wind Speed Gust Speed Precip Events Conditions
12:56 AM 66.9 °F - 64.9 °F 93% 30.08 in 8.0 mi ENE 5.8 mph - N/A   Clear
1:56 AM 65.8 °F - 63.9 °F 93% 30.08 in 8.0 mi NE 5.8 mph - N/A   Clear
2:56 AM 63.9 °F - 63.0 °F 97% 30.08 in 6.0 mi ENE 4.6 mph - N/A   Clear
3:56 AM 63.0 °F - 63.0 °F 100% 30.08 in 5.0 mi NE 4.6 mph - N/A   Clear
4:56 AM 61.9 °F - 61.0 °F 97% 30.08 in 6.0 mi NE 3.5 mph - N/A   Clear
5:56 AM 61.9 °F - 61.0 °F 97% 30.10 in 6.0 mi NE 5.8 mph - N/A   Clear
6:56 AM 61.9 °F - 61.0 °F 97% 30.11 in 6.0 mi ENE 5.8 mph - N/A   Partly Cloudy
7:56 AM 63.9 °F - 63.0 °F 97% 30.12 in 5.0 mi ENE 6.9 mph - N/A   Clear
8:56 AM 68.0 °F - 63.0 °F 84% 30.13 in 9.0 mi East 8.1 mph - N/A   Clear
9:56 AM 70.9 °F - 61.9 °F 73% 30.13 in 9.0 mi East 9.2 mph - N/A   Clear
10:56 AM 73.9 °F - 63.0 °F 68% 30.14 in 10.0 mi East 9.2 mph - N/A   Clear
11:56 AM 75.9 °F - 63.0 °F 64% 30.13 in 10.0 mi East 8.1 mph - N/A   Clear
12:56 PM 77.9 °F - 63.0 °F 60% 30.12 in 10.0 mi Variable 6.9 mph - N/A   Partly Cloudy
1:56 PM 79.0 °F - 63.9 °F 60% 30.11 in 10.0 mi NNE 6.9 mph - N/A   Clear
2:56 PM 79.9 °F - 63.9 °F 58% 30.10 in 10.0 mi ENE 9.2 mph - N/A   Partly Cloudy
3:56 PM 81.0 °F 81.9 °F 61.9 °F 52% 30.09 in 10.0 mi ENE 6.9 mph - N/A   Clear
4:56 PM 79.9 °F - 63.9 °F 58% 30.09 in 10.0 mi Variable 3.5 mph - N/A   Partly Cloudy
5:56 PM 79.9 °F - 63.0 °F 56% 30.08 in 10.0 mi East 6.9 mph - N/A   Clear
6:56 PM 77.9 °F - 63.9 °F 62% 30.07 in 10.0 mi NE 8.1 mph - N/A   Clear
7:56 PM 72.9 °F - 63.9 °F 73% 30.09 in 10.0 mi ENE 4.6 mph - N/A   Clear
8:56 PM 66.9 °F - 63.0 °F 87% 30.11 in 10.0 mi ENE 4.6 mph - N/A   Clear
9:56 PM 64.9 °F - 61.9 °F 90% 30.12 in 10.0 mi ENE 5.8 mph - N/A   Clear
10:56 PM 63.9 °F - 61.0 °F 90% 30.12 in 10.0 mi East 5.8 mph - N/A   Clear
11:56 PM 63.0 °F - 59.9 °F 90% 30.12 in 10.0 mi ENE 5.8 mph - N/A   Clear